When you browse on this site, cookies collect data to enhance your experience and personalize the content and advertising you see.
Visit our Privacy Policy to learn more. By continuing to use the site, you agree to this use of cookies and data.
  • In Hungary
  • List of Countries
  • For 7 days
  • Water Temperature
  • Satellite Maps
  • Weather Map
  • News
  • Weather Widgets
  • user-avatar
    Login

    Hourly Weather Kremenec

    Today, 21 November, Wednesday

    Time Temperature Precipitation Wind Pressure Humidity
    00:00 -5°C° 0 mm 4 mps 736 mmHg 84%
    01:00 -5°C° 0 mm 4 mps 736 mmHg 86%
    02:00 -5°C° 0 mm 3 mps 737 mmHg 87%
    03:00 -4°C° 0 mm 4 mps 736 mmHg 86%
    04:00 -4°C° 0 mm 4 mps 736 mmHg 86%
    05:00 -4°C° 0 mm 4 mps 736 mmHg 85%
    06:00 -5°C° 0 mm 5 mps 736 mmHg 85%
    07:00 -5°C° 0 mm 5 mps 736 mmHg 85%
    08:00 -5°C° 0 mm 5 mps 736 mmHg 85%
    09:00 -5°C° 0 mm 5 mps 736 mmHg 83%
    10:00 -4°C° 0 mm 5 mps 736 mmHg 80%
    11:00 -4°C° 0 mm 5 mps 737 mmHg 78%
    12:00 -2°C° 0 mm 5 mps 737 mmHg 77%
    13:00 -2°C° 0 mm 5 mps 736 mmHg 76%
    14:00 -2°C° 0 mm 4 mps 736 mmHg 74%
    15:00 -2°C° 0 mm 4 mps 736 mmHg 78%
    16:00 -3°C° 0 mm 4 mps 737 mmHg 81%
    17:00 -4°C° 0 mm 3 mps 737 mmHg 85%
    18:00 -4°C° 0 mm 3 mps 737 mmHg 86%
    19:00 -5°C° 0 mm 3 mps 737 mmHg 87%
    20:00 -5°C° 0 mm 3 mps 737 mmHg 89%
    21:00 -5°C° 0 mm 3 mps 737 mmHg 89%
    22:00 -5°C° 0 mm 3 mps 737 mmHg 90%
    23:00 -6°C° 0 mm 3 mps 737 mmHg 90%

    Tomorrow, 22 November, Thursday

    Time Temperature Precipitation Wind Pressure Humidity
    00:00 -5°C° 0 mm 2 mps 737 mmHg 90%
    01:00 -5°C° 0 mm 2 mps 737 mmHg 90%
    02:00 -5°C° 0 mm 2 mps 737 mmHg 90%
    03:00 -5°C° 0 mm 2 mps 737 mmHg 90%
    04:00 -5°C° 0 mm 2 mps 737 mmHg 90%
    05:00 -5°C° 0 mm 2 mps 737 mmHg 90%
    06:00 -5°C° 0 mm 2 mps 738 mmHg 89%
    07:00 -5°C° 0 mm 2 mps 738 mmHg 89%
    08:00 -5°C° 0 mm 2 mps 738 mmHg 89%
    09:00 -4°C° 0 mm 2 mps 738 mmHg 82%
    10:00 -3°C° 0 mm 2 mps 738 mmHg 75%
    11:00 -2°C° 0 mm 2 mps 738 mmHg 69%
    12:00 -2°C° 0 mm 2 mps 738 mmHg 66%
    13:00 +1°C° 0 mm 1 mps 738 mmHg 63%
    14:00 +2°C° 0 mm 1 mps 738 mmHg 60%
    15:00 +1°C° 0 mm 1 mps 738 mmHg 64%
    16:00 0°C° 0 mm 1 mps 738 mmHg 69%
    17:00 -1°C° 0 mm 1 mps 737 mmHg 74%
    18:00 -2°C° 0 mm 1 mps 738 mmHg 75%
    19:00 -2°C° 0 mm 1 mps 738 mmHg 76%
    20:00 -2°C° 0 mm 1 mps 738 mmHg 77%
    21:00 -2°C° 0 mm 1 mps 738 mmHg 77%
    22:00 -2°C° 0 mm 1 mps 738 mmHg 77%
    23:00 -3°C° 0 mm 0 mps 738 mmHg 77%

    Day after tomorrow, 23 November, Friday

    Time Temperature Precipitation Wind Pressure Humidity
    00:00 -3°C° 0 mm 0 mps 738 mmHg 77%
    01:00 -3°C° 0 mm 0 mps 738 mmHg 77%
    02:00 -3°C° 0 mm 0 mps 738 mmHg 77%
    03:00 -3°C° 0 mm 0 mps 738 mmHg 77%
    04:00 -3°C° 0 mm 1 mps 738 mmHg 78%
    05:00 -3°C° 0 mm 1 mps 738 mmHg 78%
    06:00 -3°C° 0 mm 1 mps 738 mmHg 78%
    07:00 -3°C° 0 mm 1 mps 739 mmHg 78%
    08:00 -3°C° 0 mm 1 mps 739 mmHg 78%
    09:00 -2°C° 0 mm 1 mps 739 mmHg 72%
    10:00 0°C° 0 mm 1 mps 739 mmHg 66%
    11:00 +1°C° 0 mm 1 mps 739 mmHg 60%
    12:00 -1°C° 0 mm 2 mps 739 mmHg 58%
    13:00 +1°C° 0 mm 2 mps 739 mmHg 56%
    14:00 +2°C° 0 mm 2 mps 739 mmHg 55%
    15:00 -1°C° 0 mm 2 mps 739 mmHg 60%
    16:00 -2°C° 0 mm 2 mps 739 mmHg 66%
    17:00 -3°C° 0 mm 2 mps 739 mmHg 71%
    18:00 -4°C° 0 mm 3 mps 739 mmHg 73%
    19:00 -4°C° 0 mm 3 mps 738 mmHg 74%
    20:00 -5°C° 0 mm 3 mps 738 mmHg 75%
    21:00 -5°C° 0 mm 3 mps 738 mmHg 74%
    22:00 -5°C° 0 mm 3 mps 738 mmHg 73%
    23:00 -5°C° 0 mm 4 mps 738 mmHg 72%

    24 November, Saturday

    Time Temperature Precipitation Wind Pressure Humidity
    00:00 -4°C° 0 mm 4 mps 737 mmHg 72%
    01:00 -4°C° 0 mm 4 mps 737 mmHg 72%
    02:00 -4°C° 0 mm 4 mps 737 mmHg 72%
    03:00 -4°C° 0 mm 3 mps 736 mmHg 74%
    04:00 -4°C° 0 mm 3 mps 736 mmHg 76%
    05:00 -4°C° 0 mm 3 mps 735 mmHg 78%
    06:00 -4°C° 0 mm 3 mps 735 mmHg 79%
    07:00 -5°C° 0 mm 3 mps 735 mmHg 81%
    08:00 -5°C° 0 mm 3 mps 734 mmHg 82%
    09:00 -2°C° 0 mm 3 mps 734 mmHg 78%
    10:00 -1°C° 0 mm 3 mps 734 mmHg 74%
    11:00 0°C° 0 mm 3 mps 734 mmHg 71%
    12:00 +1°C° 0 mm 3 mps 733 mmHg 70%
    13:00 +1°C° 0 mm 3 mps 733 mmHg 70%
    14:00 +2°C° 0 mm 3 mps 732 mmHg 69%
    15:00 +1°C° 0 mm 3 mps 732 mmHg 74%
    16:00 0°C° 0 mm 3 mps 732 mmHg 79%
    17:00 -1°C° 0 mm 3 mps 731 mmHg 84%
    18:00 -1°C° 0 mm 3 mps 731 mmHg 84%
    19:00 -1°C° 0 mm 3 mps 731 mmHg 83%
    20:00 -1°C° 0 mm 3 mps 731 mmHg 83%
    21:00 -1°C° 0 mm 3 mps 730 mmHg 83%
    22:00 -1°C° 0 mm 3 mps 730 mmHg 83%
    23:00 0°C° 0 mm 3 mps 730 mmHg 83%

    25 November, Sunday

    Time Temperature Precipitation Wind Pressure Humidity
    00:00 0°C° 0 mm 3 mps 730 mmHg 84%
    01:00 0°C° 0 mm 3 mps 729 mmHg 86%
    02:00 0°C° 0 mm 3 mps 729 mmHg 87%
    03:00 0°C° 0.3 mm 3 mps 729 mmHg 88%
    04:00 0°C° 0.3 mm 3 mps 729 mmHg 90%
    05:00 +1°C° 0.3 mm 3 mps 728 mmHg 92%
    06:00 +1°C° 0.3 mm 3 mps 728 mmHg 93%
    07:00 +1°C° 0.3 mm 3 mps 728 mmHg 94%
    08:00 +1°C° 0.3 mm 3 mps 728 mmHg 95%
    09:00 +1°C° 0.2 mm 3 mps 728 mmHg 95%
    10:00 +2°C° 0.2 mm 3 mps 728 mmHg 94%
    11:00 +2°C° 0.2 mm 3 mps 728 mmHg 94%
    12:00 +2°C° 0.1 mm 3 mps 728 mmHg 93%
    13:00 +2°C° 0.1 mm 3 mps 728 mmHg 92%
    14:00 +2°C° 0.1 mm 3 mps 728 mmHg 91%
    15:00 +3°C° 0 mm 2 mps 728 mmHg 92%
    16:00 +2°C° 0 mm 2 mps 728 mmHg 93%
    17:00 +2°C° 0 mm 2 mps 728 mmHg 94%
    18:00 +2°C° 0 mm 2 mps 728 mmHg 94%
    19:00 +2°C° 0 mm 2 mps 728 mmHg 94%
    20:00 +1°C° 0 mm 2 mps 728 mmHg 94%
    21:00 +1°C° 0 mm 2 mps 728 mmHg 94%
    22:00 +2°C° 0 mm 1 mps 728 mmHg 94%
    23:00 +2°C° 0 mm 1 mps 728 mmHg 94%

    26 November, Monday

    Time Temperature Precipitation Wind Pressure Humidity
    00:00 +2°C° 0 mm 1 mps 728 mmHg 94%
    01:00 +2°C° 0 mm 1 mps 728 mmHg 93%
    02:00 +1°C° 0 mm 2 mps 728 mmHg 93%
    03:00 +1°C° 0 mm 2 mps 728 mmHg 93%
    04:00 +1°C° 0 mm 2 mps 728 mmHg 93%
    05:00 +1°C° 0 mm 2 mps 728 mmHg 93%
    06:00 +1°C° 0 mm 2 mps 728 mmHg 93%
    07:00 -1°C° 0 mm 2 mps 728 mmHg 93%
    08:00 -1°C° 0 mm 2 mps 728 mmHg 93%
    09:00 +1°C° 0 mm 2 mps 728 mmHg 89%
    10:00 +1°C° 0 mm 2 mps 728 mmHg 86%
    11:00 +1°C° 0 mm 2 mps 729 mmHg 83%
    12:00 +1°C° 0 mm 2 mps 728 mmHg 79%
    13:00 0°C° 0 mm 3 mps 728 mmHg 76%
    14:00 0°C° 0 mm 3 mps 728 mmHg 73%
    15:00 -1°C° 0 mm 3 mps 728 mmHg 75%
    16:00 -1°C° 0 mm 3 mps 729 mmHg 76%
    17:00 -2°C° 0 mm 3 mps 729 mmHg 77%
    18:00 -4°C° 0 mm 3 mps 729 mmHg 79%
    19:00 -4°C° 0 mm 3 mps 729 mmHg 80%
    20:00 -5°C° 0 mm 3 mps 730 mmHg 81%
    21:00 -5°C° 0 mm 3 mps 730 mmHg 81%
    22:00 -5°C° 0 mm 3 mps 730 mmHg 80%
    23:00 -5°C° 0 mm 2 mps 730 mmHg 80%
    Show more